Fullerton, CA

7:36 PM PDT on August 24, 2019 (GMT -0700)
Fullerton Municipal

Weather History for KFUL - July, 2019

Change the Weather History Date:

Sunday, July 21, 2019

  Actual Average Record
Temperature  
Mean Temperature 76 °F 74 °F  
Max Temperature 89 °F 84 °F 100 °F (2016)
Min Temperature 63 °F 65 °F 60 °F (1999)
Degree Days  
Heating Degree Days 0 0  
Month to date heating degree days 0 0  
Since 1 June heating degree days 1 2  
Since 1 July heating degree days 0 0  
Cooling Degree Days 11 9  
Month to date cooling degree days 173 177  
Year to date cooling degree days 434 445  
Since 1 June cooling degree days 344 322  
Growing Degree Days 26 (Base 50)    
Moisture  
Dew Point 59 °F    
Average Humidity 57    
Maximum Humidity 78    
Minimum Humidity 36    
Precipitation  
Precipitation 0.00 in 0.00 in 0.00 in (2019)
Month to date precipitation 0.00 0.03  
Year to date precipitation 13.89 9.68  
Sea Level Pressure  
Sea Level Pressure 29.90 in    
Wind  
Wind Speed 4 mph (West)    
Max Wind Speed 12 mph    
Max Gust Speed 16 mph    
Visibility 10 miles    
Events      
T = Trace of Precipitation, MM = Missing Value Source: NWS Daily Summary

Daily Weather History Graph

Daily Weather History Graph

Search for Another Location

Airport or City:

Astronomy

Jul. 21, 2019 Rise Set
Actual Time 5:55 AM PDT 8:00 PM PDT
Civil Twilight 5:27 AM PDT 8:28 PM PDT
Nautical Twilight 4:53 AM PDT 9:02 PM PDT
Astronomical Twilight 4:16 AM PDT 9:39 PM PDT
Moon 11:08 PM PDT (7/21) 10:10 AM PDT (7/21)
Length of Visible Light 15h 00m
Length of Day
14h 04m
Waning Gibbous, 79% of the Moon is Illuminated
Jul 21
Waning Gibbous
Jul 24
Last Quarter
Jul 31
New
Aug 7
First Quarter
Aug 15
Full

Hourly Weather History & Observations

Time (PDT) Temp. Heat Index Dew Point Humidity Pressure Visibility Wind Dir Wind Speed Gust Speed Precip Events Conditions
12:53 AM 66.0 °F - 57.9 °F 75% 29.91 in 10.0 mi WNW 3.5 mph - N/A   Clear
1:53 AM 64.9 °F - 57.9 °F 78% 29.91 in 10.0 mi WNW 4.6 mph - N/A   Clear
2:53 AM 64.9 °F - 57.9 °F 78% 29.90 in 10.0 mi Variable 4.6 mph - N/A   Clear
3:53 AM 64.9 °F - 57.9 °F 78% 29.89 in 10.0 mi WNW 4.6 mph - N/A   Clear
4:53 AM 64.0 °F - 57.9 °F 80% 29.90 in 10.0 mi WNW 6.9 mph - N/A   Clear
5:53 AM 64.0 °F - 57.9 °F 80% 29.91 in 10.0 mi Calm Calm - N/A   Clear
6:53 AM 64.9 °F - 57.9 °F 78% 29.91 in 10.0 mi Calm Calm - N/A   Clear
7:53 AM 68.0 °F - 59.0 °F 73% 29.93 in 10.0 mi Calm Calm - N/A   Clear
8:53 AM 71.1 °F - 57.9 °F 63% 29.93 in 10.0 mi Calm Calm - N/A   Clear
9:53 AM 73.9 °F - 59.0 °F 59% 29.93 in 10.0 mi Variable 4.6 mph - N/A   Partly Cloudy
10:53 AM 78.1 °F - 59.0 °F 52% 29.92 in 10.0 mi Calm Calm - N/A   Partly Cloudy
11:53 AM 82.0 °F 82.4 °F 60.1 °F 47% 29.91 in 10.0 mi Variable 4.6 mph - N/A   Clear
12:53 PM 82.9 °F 83.3 °F 61.0 °F 47% 29.90 in 10.0 mi SW 9.2 mph - N/A   Partly Cloudy
1:53 PM 84.9 °F 85.0 °F 61.0 °F 44% 29.89 in 10.0 mi SSW 9.2 mph - N/A   Clear
2:53 PM 88.0 °F 87.1 °F 59.0 °F 37% 29.87 in 10.0 mi SSW 9.2 mph - N/A   Partly Cloudy
3:53 PM 88.0 °F 86.9 °F 57.9 °F 36% 29.86 in 10.0 mi Variable 6.9 mph - N/A   Clear
4:53 PM 84.0 °F 83.3 °F 57.0 °F 40% 29.86 in 10.0 mi West 6.9 mph - N/A   Partly Cloudy
5:53 PM 82.0 °F 82.0 °F 57.9 °F 44% 29.85 in 10.0 mi Variable 5.8 mph - N/A   Clear
6:53 PM 78.1 °F - 59.0 °F 52% 29.86 in 10.0 mi West 8.1 mph - N/A   Clear
7:53 PM 75.0 °F - 57.9 °F 55% 29.87 in 10.0 mi Variable 3.5 mph - N/A   Clear
8:53 PM 72.0 °F - 59.0 °F 64% 29.88 in 10.0 mi WNW 4.6 mph - N/A   Clear
9:53 PM 70.0 °F - 59.0 °F 68% 29.91 in 10.0 mi West 3.5 mph - N/A   Clear
10:53 PM 69.1 °F - 59.0 °F 70% 29.92 in 10.0 mi Calm Calm - N/A   Clear
11:53 PM 68.0 °F - 59.0 °F 73% 29.93 in 10.0 mi Calm Calm - N/A   Clear